This is the latest recevied weather packets stored in our database for station/object KB0BDN-13. If no packets are shown the sender has not sent any weather packets the latest 10 day(s).
| Time | Temp. | Humidity | Pressure | Rain* | Wind** | Luminosity | Snow |
|---|---|---|---|---|---|---|---|
| 1787968896 | 12.22° C | 87% | 1011.4 hPa | 0 mm | - | - | - |
| 1787968748 | 12.78° C | 86% | 1011.5 hPa | 0 mm | - | - | - |
| 1787967996 | 13.33° C | 85% | 1011.5 hPa | 0 mm | - | - | - |
| 1787967096 | 13.33° C | 85% | 1011.4 hPa | 0 mm | - | - | - |
| 1787966948 | 13.33° C | 84% | 1011.3 hPa | 0 mm | - | - | - |
| 1787966196 | 13.89° C | 82% | 1011.3 hPa | 0 mm | - | - | - |
| 1787966060 | 13.89° C | 82% | 1011 hPa | 0 mm | - | - | - |
| 1787965296 | 14.44° C | 80% | 1011 hPa | 0 mm | - | - | - |
| 1787965149 | 14.44° C | 79% | 1011 hPa | 0 mm | - | - | - |
| 1787964396 | 15° C | 76% | 1011 hPa | 0 mm | - | - | - |
| 1787964250 | 15° C | 75% | 1011 hPa | 0 mm | - | - | - |
| 1787963496 | 15.56° C | 69% | 1011 hPa | 0 mm | - | - | - |
| 1787963354 | 15.56° C | 69% | 1011 hPa | 0 mm | - | - | - |
| 1787962596 | 16.67° C | 68% | 1011 hPa | 0 mm | - | - | - |
| 1787962453 | 16.67° C | 67% | 1011.1 hPa | 0 mm | - | - | - |
| 1787961696 | 17.78° C | 62% | 1011.1 hPa | 0 mm | - | - | - |
| 1787960796 | 18.33° C | 58% | 1011.3 hPa | 0 mm | - | - | - |
| 1787960654 | 18.33° C | 57% | 1011.4 hPa | 0 mm | - | - | - |
| 1787959896 | 18.89° C | 55% | 1011.4 hPa | 0 mm | - | - | - |
| 1787959754 | 18.89° C | 53% | 1011.5 hPa | 0 mm | - | - | - |
| 1787958996 | 19.44° C | 51% | 1011.5 hPa | 0 mm | - | - | - |
| 1787958854 | 19.44° C | 50% | 1011.5 hPa | 0 mm | - | - | - |
| 1787958096 | 19.44° C | 51% | 1011.5 hPa | 0 mm | - | - | - |
| 1787957196 | 19.44° C | 50% | 1011.5 hPa | 0 mm | - | - | - |
| 1787957054 | 20° C | 51% | 1011.5 hPa | 0 mm | - | - | - |
* Rain latest hour (hover to see other rain measurements)
** Current wind speed in m/s (hover to see current wind gust speed)